Year,Month,Day,Hour,Minute,Value (Times are PST for windgust in km/hr)
2011,07,10,00,00,3.20
2011,07,10,00,01,4.80
2011,07,10,00,02,4.80
2011,07,10,00,03,4.80
2011,07,10,00,04,1.60
2011,07,10,00,05,6.40
2011,07,10,00,06,4.80
2011,07,10,00,07,3.20
2011,07,10,00,08,3.20
2011,07,10,00,09,6.40
2011,07,10,00,10,4.80
2011,07,10,00,11,4.80
2011,07,10,00,12,6.40
2011,07,10,00,13,6.40
2011,07,10,00,14,6.40
2011,07,10,00,15,1.60
2011,07,10,00,16,6.40
2011,07,10,00,17,4.80
2011,07,10,00,18,3.20
2011,07,10,00,19,1.60
2011,07,10,00,20,1.60
2011,07,10,00,21,1.60
2011,07,10,00,22,1.60
2011,07,10,00,23,4.80
2011,07,10,00,24,4.80
2011,07,10,00,25,6.40
2011,07,10,00,26,1.60
2011,07,10,00,27,0.00
2011,07,10,00,28,1.60
2011,07,10,00,29,4.80
2011,07,10,00,30,3.20
2011,07,10,00,31,3.20
2011,07,10,00,32,8.10
2011,07,10,00,33,6.40
2011,07,10,00,34,1.60
2011,07,10,00,35,4.80
2011,07,10,00,36,4.80
2011,07,10,00,37,4.80
2011,07,10,00,38,6.40
2011,07,10,00,39,1.60
2011,07,10,00,40,3.20
2011,07,10,00,41,1.60
2011,07,10,00,42,6.40
2011,07,10,00,43,3.20
2011,07,10,00,44,3.20
2011,07,10,00,45,1.60
2011,07,10,00,46,0.00
2011,07,10,00,47,4.80
2011,07,10,00,48,4.80
2011,07,10,00,49,1.60
2011,07,10,00,50,1.60
2011,07,10,00,51,1.60
2011,07,10,00,52,3.20
2011,07,10,00,53,1.60
2011,07,10,00,54,1.60
2011,07,10,00,55,3.20
2011,07,10,00,56,3.20
2011,07,10,00,57,1.60
2011,07,10,00,58,4.80
2011,07,10,00,59,3.20
2011,07,10,01,00,4.80
2011,07,10,01,01,6.40
2011,07,10,01,02,8.10
2011,07,10,01,03,8.10
2011,07,10,01,04,4.80
2011,07,10,01,05,3.20
2011,07,10,01,06,3.20
2011,07,10,01,07,4.80
2011,07,10,01,08,6.40
2011,07,10,01,09,8.10
2011,07,10,01,10,4.80
2011,07,10,01,11,3.20
2011,07,10,01,12,3.20
2011,07,10,01,13,1.60
2011,07,10,01,14,1.60
2011,07,10,01,15,3.20
2011,07,10,01,16,3.20
2011,07,10,01,17,1.60
2011,07,10,01,18,3.20
2011,07,10,01,19,0.00
2011,07,10,01,20,0.00
2011,07,10,01,21,3.20
2011,07,10,01,22,6.40
2011,07,10,01,23,4.80
2011,07,10,01,24,3.20
2011,07,10,01,25,1.60
2011,07,10,01,26,6.40
2011,07,10,01,27,1.60
2011,07,10,01,28,1.60
2011,07,10,01,29,1.60
2011,07,10,01,30,1.60
2011,07,10,01,31,0.00
2011,07,10,01,32,1.60
2011,07,10,01,33,1.60
2011,07,10,01,34,4.80
2011,07,10,01,35,3.20
2011,07,10,01,36,1.60
2011,07,10,01,37,1.60
2011,07,10,01,38,0.00
2011,07,10,01,39,3.20
2011,07,10,01,40,3.20
2011,07,10,01,41,3.20
2011,07,10,01,42,3.20
2011,07,10,01,43,3.20
2011,07,10,01,44,4.80
2011,07,10,01,45,4.80
2011,07,10,01,46,4.80
2011,07,10,01,47,1.60
2011,07,10,01,48,3.20
2011,07,10,01,49,4.80
2011,07,10,01,50,4.80
2011,07,10,01,51,8.10
2011,07,10,01,52,4.80
2011,07,10,01,53,6.40
2011,07,10,01,54,6.40
2011,07,10,01,55,4.80
2011,07,10,01,56,3.20
2011,07,10,01,57,3.20
2011,07,10,01,58,1.60
2011,07,10,01,59,1.60
2011,07,10,02,00,3.20
2011,07,10,02,01,4.80
2011,07,10,02,02,4.80
2011,07,10,02,03,3.20
2011,07,10,02,04,4.80
2011,07,10,02,05,3.20
2011,07,10,02,06,3.20
2011,07,10,02,07,3.20
2011,07,10,02,08,3.20
2011,07,10,02,09,3.20
2011,07,10,02,10,1.60
2011,07,10,02,11,1.60
2011,07,10,02,12,3.20
2011,07,10,02,13,1.60
2011,07,10,02,14,3.20
2011,07,10,02,15,0.00
2011,07,10,02,16,1.60
2011,07,10,02,17,1.60
2011,07,10,02,18,0.00
2011,07,10,02,19,0.00
2011,07,10,02,20,1.60
2011,07,10,02,21,0.00
2011,07,10,02,22,0.00
2011,07,10,02,23,1.60
2011,07,10,02,24,1.60
2011,07,10,02,25,1.60
2011,07,10,02,26,1.60
2011,07,10,02,27,0.00
2011,07,10,02,28,1.60
2011,07,10,02,29,0.00
2011,07,10,02,30,0.00
2011,07,10,02,31,0.00
2011,07,10,02,32,1.60
2011,07,10,02,33,0.00
2011,07,10,02,34,0.00
2011,07,10,02,35,0.00
2011,07,10,02,36,0.00
2011,07,10,02,37,0.00
2011,07,10,02,38,0.00
2011,07,10,02,39,0.00
2011,07,10,02,40,0.00
2011,07,10,02,41,0.00
2011,07,10,02,42,0.00
2011,07,10,02,43,0.00
2011,07,10,02,44,0.00
2011,07,10,02,45,0.00
2011,07,10,02,46,0.00
2011,07,10,02,47,0.00
2011,07,10,02,48,0.00
2011,07,10,02,49,1.60
2011,07,10,02,50,0.00
2011,07,10,02,51,0.00
2011,07,10,02,52,0.00
2011,07,10,02,53,0.00
2011,07,10,02,54,0.00
2011,07,10,02,55,1.60
2011,07,10,02,56,0.00
2011,07,10,02,57,0.00
2011,07,10,02,58,0.00
2011,07,10,02,59,0.00
2011,07,10,03,00,0.00
2011,07,10,03,01,0.00
2011,07,10,03,02,0.00
2011,07,10,03,03,0.00
2011,07,10,03,04,0.00
2011,07,10,03,05,0.00
2011,07,10,03,06,0.00
2011,07,10,03,07,0.00
2011,07,10,03,08,0.00
2011,07,10,03,09,0.00
2011,07,10,03,10,0.00
2011,07,10,03,11,0.00
2011,07,10,03,12,0.00
2011,07,10,03,13,0.00
2011,07,10,03,14,0.00
2011,07,10,03,15,0.00
2011,07,10,03,16,0.00
2011,07,10,03,17,0.00
2011,07,10,03,18,0.00
2011,07,10,03,19,0.00
2011,07,10,03,20,0.00
2011,07,10,03,21,0.00
2011,07,10,03,22,0.00
2011,07,10,03,23,0.00
2011,07,10,03,24,0.00
2011,07,10,03,25,0.00
2011,07,10,03,26,0.00
2011,07,10,03,27,0.00
2011,07,10,03,28,0.00
2011,07,10,03,29,0.00
2011,07,10,03,30,0.00
2011,07,10,03,31,0.00
2011,07,10,03,32,0.00
2011,07,10,03,33,0.00
2011,07,10,03,34,0.00
2011,07,10,03,35,0.00
2011,07,10,03,36,0.00
2011,07,10,03,37,1.60
2011,07,10,03,38,1.60
2011,07,10,03,39,1.60
2011,07,10,03,40,0.00
2011,07,10,03,41,0.00
2011,07,10,03,42,0.00
2011,07,10,03,43,0.00
2011,07,10,03,44,0.00
2011,07,10,03,45,0.00
2011,07,10,03,46,0.00
2011,07,10,03,47,0.00
2011,07,10,03,48,0.00
2011,07,10,03,49,0.00
2011,07,10,03,50,0.00
2011,07,10,03,51,0.00
2011,07,10,03,52,0.00
2011,07,10,03,53,0.00
2011,07,10,03,54,1.60
2011,07,10,03,55,0.00
2011,07,10,03,56,0.00
2011,07,10,03,57,0.00
2011,07,10,03,58,0.00
2011,07,10,03,59,0.00
2011,07,10,04,00,0.00
2011,07,10,04,01,0.00
2011,07,10,04,02,0.00
2011,07,10,04,03,0.00
2011,07,10,04,04,0.00
2011,07,10,04,05,0.00
2011,07,10,04,06,0.00
2011,07,10,04,07,0.00
2011,07,10,04,08,0.00
2011,07,10,04,09,0.00
2011,07,10,04,10,0.00
2011,07,10,04,11,0.00
2011,07,10,04,12,0.00
2011,07,10,04,13,0.00
2011,07,10,04,14,0.00
2011,07,10,04,15,0.00
2011,07,10,04,16,0.00
2011,07,10,04,17,0.00
2011,07,10,04,18,0.00
2011,07,10,04,19,0.00
2011,07,10,04,20,0.00
2011,07,10,04,21,0.00
2011,07,10,04,22,0.00
2011,07,10,04,23,0.00
2011,07,10,04,24,0.00
2011,07,10,04,25,0.00
2011,07,10,04,26,1.60
2011,07,10,04,27,1.60
2011,07,10,04,28,0.00
2011,07,10,04,29,0.00
2011,07,10,04,30,0.00
2011,07,10,04,31,0.00
2011,07,10,04,32,0.00
2011,07,10,04,33,0.00
2011,07,10,04,34,0.00
2011,07,10,04,35,0.00
2011,07,10,04,36,0.00
2011,07,10,04,37,0.00
2011,07,10,04,38,0.00
2011,07,10,04,39,0.00
2011,07,10,04,40,0.00
2011,07,10,04,41,0.00
2011,07,10,04,42,0.00
2011,07,10,04,43,0.00
2011,07,10,04,44,0.00
2011,07,10,04,45,0.00
2011,07,10,04,46,0.00
2011,07,10,04,47,0.00
2011,07,10,04,48,0.00
2011,07,10,04,49,0.00
2011,07,10,04,50,0.00
2011,07,10,04,51,0.00
2011,07,10,04,52,1.60
2011,07,10,04,53,0.00
2011,07,10,04,54,0.00
2011,07,10,04,55,0.00
2011,07,10,04,56,0.00
2011,07,10,04,57,0.00
2011,07,10,04,58,0.00
2011,07,10,04,59,0.00
2011,07,10,05,00,0.00
2011,07,10,05,01,0.00
2011,07,10,05,02,0.00
2011,07,10,05,03,0.00
2011,07,10,05,04,0.00
2011,07,10,05,05,0.00
2011,07,10,05,06,0.00
2011,07,10,05,07,0.00
2011,07,10,05,08,0.00
2011,07,10,05,09,0.00
2011,07,10,05,10,0.00
2011,07,10,05,11,0.00
2011,07,10,05,12,0.00
2011,07,10,05,13,0.00
2011,07,10,05,14,0.00
2011,07,10,05,15,0.00
2011,07,10,05,16,0.00
2011,07,10,05,17,0.00
2011,07,10,05,18,0.00
2011,07,10,05,19,0.00
2011,07,10,05,20,0.00
2011,07,10,05,21,1.60
2011,07,10,05,22,0.00
2011,07,10,05,23,0.00
2011,07,10,05,24,0.00
2011,07,10,05,25,0.00
2011,07,10,05,26,0.00
2011,07,10,05,27,0.00
2011,07,10,05,28,0.00
2011,07,10,05,29,0.00
2011,07,10,05,30,0.00
2011,07,10,05,31,0.00
2011,07,10,05,32,0.00
2011,07,10,05,33,0.00
2011,07,10,05,34,0.00
2011,07,10,05,35,0.00
2011,07,10,05,36,0.00
2011,07,10,05,37,0.00
2011,07,10,05,38,1.60
2011,07,10,05,39,0.00
2011,07,10,05,40,0.00
2011,07,10,05,41,0.00
2011,07,10,05,42,0.00
2011,07,10,05,43,0.00
2011,07,10,05,44,0.00
2011,07,10,05,45,0.00
2011,07,10,05,46,0.00
2011,07,10,05,47,0.00
2011,07,10,05,48,0.00
2011,07,10,05,49,0.00
2011,07,10,05,50,0.00
2011,07,10,05,51,1.60
2011,07,10,05,52,0.00
2011,07,10,05,53,1.60
2011,07,10,05,54,0.00
2011,07,10,05,55,0.00
2011,07,10,05,56,0.00
2011,07,10,05,57,0.00
2011,07,10,05,58,1.60
2011,07,10,05,59,0.00
2011,07,10,06,00,0.00
2011,07,10,06,01,0.00
2011,07,10,06,02,0.00
2011,07,10,06,03,0.00
2011,07,10,06,04,0.00
2011,07,10,06,05,0.00
2011,07,10,06,06,0.00
2011,07,10,06,07,0.00
2011,07,10,06,08,0.00
2011,07,10,06,09,0.00
2011,07,10,06,10,0.00
2011,07,10,06,11,0.00
2011,07,10,06,12,0.00
2011,07,10,06,13,0.00
2011,07,10,06,14,0.00
2011,07,10,06,15,0.00
2011,07,10,06,16,0.00
2011,07,10,06,17,0.00
2011,07,10,06,18,0.00
2011,07,10,06,19,0.00
2011,07,10,06,20,0.00
2011,07,10,06,21,0.00
2011,07,10,06,22,0.00
2011,07,10,06,23,0.00
2011,07,10,06,24,0.00
2011,07,10,06,25,0.00
2011,07,10,06,26,0.00
2011,07,10,06,27,0.00
2011,07,10,06,28,0.00
2011,07,10,06,29,0.00
2011,07,10,06,30,0.00
2011,07,10,06,31,0.00
2011,07,10,06,32,0.00
2011,07,10,06,33,0.00
2011,07,10,06,34,0.00
2011,07,10,06,35,0.00
2011,07,10,06,36,0.00
2011,07,10,06,37,0.00
2011,07,10,06,38,0.00
2011,07,10,06,39,0.00
2011,07,10,06,40,0.00
2011,07,10,06,41,0.00
2011,07,10,06,42,0.00
2011,07,10,06,43,0.00
2011,07,10,06,44,0.00
2011,07,10,06,45,0.00
2011,07,10,06,46,0.00
2011,07,10,06,47,0.00
2011,07,10,06,48,0.00
2011,07,10,06,49,1.60
2011,07,10,06,50,1.60
2011,07,10,06,51,1.60
2011,07,10,06,52,1.60
2011,07,10,06,53,1.60
2011,07,10,06,54,3.20
2011,07,10,06,55,3.20
2011,07,10,06,56,4.80
2011,07,10,06,57,4.80
2011,07,10,06,58,4.80
2011,07,10,06,59,4.80
2011,07,10,07,00,4.80
2011,07,10,07,01,4.80
2011,07,10,07,02,4.80
2011,07,10,07,03,3.20
2011,07,10,07,04,1.60
2011,07,10,07,05,0.00
2011,07,10,07,06,0.00
2011,07,10,07,07,1.60
2011,07,10,07,08,1.60
2011,07,10,07,09,1.60
2011,07,10,07,10,1.60
2011,07,10,07,11,3.20
2011,07,10,07,12,1.60
2011,07,10,07,13,3.20
2011,07,10,07,14,3.20
2011,07,10,07,15,4.80
2011,07,10,07,16,3.20
2011,07,10,07,17,1.60
2011,07,10,07,18,1.60
2011,07,10,07,19,4.80
2011,07,10,07,20,4.80
2011,07,10,07,21,4.80
2011,07,10,07,22,3.20
2011,07,10,07,23,3.20
2011,07,10,07,24,1.60
2011,07,10,07,25,0.00
2011,07,10,07,26,1.60
2011,07,10,07,27,0.00
2011,07,10,07,28,0.00
2011,07,10,07,29,0.00
2011,07,10,07,30,0.00
2011,07,10,07,31,0.00
2011,07,10,07,32,1.60
2011,07,10,07,33,1.60
2011,07,10,07,34,1.60
2011,07,10,07,35,3.20
2011,07,10,07,36,1.60
2011,07,10,07,37,1.60
2011,07,10,07,38,3.20
2011,07,10,07,39,1.60
2011,07,10,07,40,3.20
2011,07,10,07,41,1.60
2011,07,10,07,42,1.60
2011,07,10,07,43,0.00
2011,07,10,07,44,1.60
2011,07,10,07,45,1.60
2011,07,10,07,46,1.60
2011,07,10,07,47,4.80
2011,07,10,07,48,4.80
2011,07,10,07,49,1.60
2011,07,10,07,50,0.00
2011,07,10,07,51,0.00
2011,07,10,07,52,1.60
2011,07,10,07,53,3.20
2011,07,10,07,54,1.60
2011,07,10,07,55,1.60
2011,07,10,07,56,1.60
2011,07,10,07,57,1.60
2011,07,10,07,58,1.60
2011,07,10,07,59,0.00
2011,07,10,08,00,1.60
2011,07,10,08,01,0.00
2011,07,10,08,02,0.00
2011,07,10,08,03,0.00
2011,07,10,08,04,0.00
2011,07,10,08,05,1.60
2011,07,10,08,06,1.60
2011,07,10,08,07,0.00
2011,07,10,08,08,1.60
2011,07,10,08,09,1.60
2011,07,10,08,10,0.00
2011,07,10,08,11,0.00
2011,07,10,08,12,0.00
2011,07,10,08,13,1.60
2011,07,10,08,14,0.00
2011,07,10,08,15,0.00
2011,07,10,08,16,1.60
2011,07,10,08,17,1.60
2011,07,10,08,18,0.00
2011,07,10,08,19,0.00
2011,07,10,08,20,1.60
2011,07,10,08,21,3.20
2011,07,10,08,22,1.60
2011,07,10,08,23,0.00
2011,07,10,08,24,0.00
2011,07,10,08,25,0.00
2011,07,10,08,26,0.00
2011,07,10,08,27,0.00
2011,07,10,08,28,0.00
2011,07,10,08,29,1.60
2011,07,10,08,30,1.60
2011,07,10,08,31,1.60
2011,07,10,08,32,1.60
2011,07,10,08,33,0.00
2011,07,10,08,34,0.00
2011,07,10,08,35,1.60
2011,07,10,08,36,0.00
2011,07,10,08,37,0.00
2011,07,10,08,38,1.60
2011,07,10,08,39,0.00
2011,07,10,08,40,3.20
2011,07,10,08,41,1.60
2011,07,10,08,42,4.80
2011,07,10,08,43,4.80
2011,07,10,08,44,1.60
2011,07,10,08,45,4.80
2011,07,10,08,46,3.20
2011,07,10,08,47,1.60
2011,07,10,08,48,1.60
2011,07,10,08,49,1.60
2011,07,10,08,50,3.20
2011,07,10,08,51,3.20
2011,07,10,08,52,1.60
2011,07,10,08,53,4.80
2011,07,10,08,54,4.80
2011,07,10,08,55,1.60
2011,07,10,08,56,6.40
2011,07,10,08,57,8.10
2011,07,10,08,58,8.10
2011,07,10,08,59,3.20
2011,07,10,09,00,4.80
2011,07,10,09,01,4.80
2011,07,10,09,02,4.80
2011,07,10,09,03,1.60
2011,07,10,09,04,4.80
2011,07,10,09,05,6.40
2011,07,10,09,06,6.40
2011,07,10,09,07,6.40
2011,07,10,09,08,6.40
2011,07,10,09,09,4.80
2011,07,10,09,10,4.80
2011,07,10,09,11,6.40
2011,07,10,09,12,4.80
2011,07,10,09,13,4.80
2011,07,10,09,14,8.10
2011,07,10,09,15,8.10
2011,07,10,09,16,4.80
2011,07,10,09,17,8.10
2011,07,10,09,18,8.10
2011,07,10,09,19,6.40
2011,07,10,09,20,3.20
2011,07,10,09,21,4.80
2011,07,10,09,22,4.80
2011,07,10,09,23,6.40
2011,07,10,09,24,8.10
2011,07,10,09,25,4.80
2011,07,10,09,26,8.10
2011,07,10,09,27,4.80
2011,07,10,09,28,3.20
2011,07,10,09,29,8.10
2011,07,10,09,30,4.80
2011,07,10,09,31,3.20
2011,07,10,09,32,6.40
2011,07,10,09,33,8.10
2011,07,10,09,34,6.40
2011,07,10,09,35,4.80
2011,07,10,09,36,4.80
2011,07,10,09,37,4.80
2011,07,10,09,38,1.60
2011,07,10,09,39,0.00
2011,07,10,09,40,0.00
2011,07,10,09,41,4.80
2011,07,10,09,42,4.80
2011,07,10,09,43,1.60
2011,07,10,09,44,3.20
2011,07,10,09,45,6.40
2011,07,10,09,46,6.40
2011,07,10,09,47,6.40
2011,07,10,09,48,6.40
2011,07,10,09,49,6.40
2011,07,10,09,50,1.60
2011,07,10,09,51,3.20
2011,07,10,09,52,6.40
2011,07,10,09,53,6.40
2011,07,10,09,54,8.10
2011,07,10,09,55,6.40
2011,07,10,09,56,4.80
2011,07,10,09,57,4.80
2011,07,10,09,58,6.40
2011,07,10,09,59,8.10
2011,07,10,10,00,6.40
2011,07,10,10,01,4.80
2011,07,10,10,02,4.80
2011,07,10,10,03,8.10
2011,07,10,10,04,8.10
2011,07,10,10,05,6.40
2011,07,10,10,06,3.20
2011,07,10,10,07,4.80
2011,07,10,10,08,3.20
2011,07,10,10,09,1.60
2011,07,10,10,10,1.60
2011,07,10,10,11,1.60
2011,07,10,10,12,3.20
2011,07,10,10,13,4.80
2011,07,10,10,14,3.20
2011,07,10,10,15,4.80
2011,07,10,10,16,3.20
2011,07,10,10,17,4.80
2011,07,10,10,18,4.80
2011,07,10,10,19,6.40
2011,07,10,10,20,4.80
2011,07,10,10,21,4.80
2011,07,10,10,22,3.20
2011,07,10,10,23,1.60
2011,07,10,10,24,4.80
2011,07,10,10,25,3.20
2011,07,10,10,26,6.40
2011,07,10,10,27,3.20
2011,07,10,10,28,8.10
2011,07,10,10,29,6.40
2011,07,10,10,30,3.20
2011,07,10,10,31,4.80
2011,07,10,10,32,4.80
2011,07,10,10,33,4.80
2011,07,10,10,34,1.60
2011,07,10,10,35,3.20
2011,07,10,10,36,3.20
2011,07,10,10,37,4.80
2011,07,10,10,38,6.40
2011,07,10,10,39,8.10
2011,07,10,10,40,3.20
2011,07,10,10,41,6.40
2011,07,10,10,42,4.80
2011,07,10,10,43,3.20
2011,07,10,10,44,4.80
2011,07,10,10,45,4.80
2011,07,10,10,46,1.60
2011,07,10,10,47,3.20
2011,07,10,10,48,6.40
2011,07,10,10,49,4.80
2011,07,10,10,50,6.40
2011,07,10,10,51,3.20
2011,07,10,10,52,3.20
2011,07,10,10,53,3.20
2011,07,10,10,54,3.20
2011,07,10,10,55,6.40
2011,07,10,10,56,4.80
2011,07,10,10,57,1.60
2011,07,10,10,58,1.60
2011,07,10,10,59,4.80
2011,07,10,11,00,4.80
2011,07,10,11,01,6.40
2011,07,10,11,02,8.10
2011,07,10,11,03,8.10
2011,07,10,11,04,3.20
2011,07,10,11,05,3.20
2011,07,10,11,06,4.80
2011,07,10,11,07,3.20
2011,07,10,11,08,6.40
2011,07,10,11,09,3.20
2011,07,10,11,10,1.60
2011,07,10,11,11,6.40
2011,07,10,11,12,3.20
2011,07,10,11,13,3.20
2011,07,10,11,14,4.80
2011,07,10,11,15,6.40
2011,07,10,11,16,6.40
2011,07,10,11,17,4.80
2011,07,10,11,18,3.20
2011,07,10,11,19,1.60
2011,07,10,11,20,1.60
2011,07,10,11,21,6.40
2011,07,10,11,22,6.40
2011,07,10,11,23,4.80
2011,07,10,11,24,6.40
2011,07,10,11,25,4.80
2011,07,10,11,26,6.40
2011,07,10,11,27,6.40
2011,07,10,11,28,6.40
2011,07,10,11,29,9.60
2011,07,10,11,30,6.40
2011,07,10,11,31,6.40
2011,07,10,11,32,3.20
2011,07,10,11,33,4.80
2011,07,10,11,34,4.80
2011,07,10,11,35,4.80
2011,07,10,11,36,1.60
2011,07,10,11,37,1.60
2011,07,10,11,38,8.10
2011,07,10,11,39,8.10
2011,07,10,11,40,9.60
2011,07,10,11,41,9.60
2011,07,10,11,42,9.60
2011,07,10,11,43,8.10
2011,07,10,11,44,11.30
2011,07,10,11,45,6.40
2011,07,10,11,46,8.10
2011,07,10,11,47,4.80
2011,07,10,11,48,4.80
2011,07,10,11,49,6.40
2011,07,10,11,50,4.80
2011,07,10,11,51,6.40
2011,07,10,11,52,3.20
2011,07,10,11,53,4.80
2011,07,10,11,54,3.20
2011,07,10,11,55,3.20
2011,07,10,11,56,6.40
2011,07,10,11,57,4.80
2011,07,10,11,58,1.60
2011,07,10,11,59,3.20
2011,07,10,12,00,4.80
2011,07,10,12,01,3.20
2011,07,10,12,02,1.60
2011,07,10,12,03,3.20
2011,07,10,12,04,6.40
2011,07,10,12,05,6.40
2011,07,10,12,06,4.80
2011,07,10,12,07,3.20
2011,07,10,12,08,4.80
2011,07,10,12,09,6.40
2011,07,10,12,10,6.40
2011,07,10,12,11,8.10
2011,07,10,12,12,6.40
2011,07,10,12,13,4.80
2011,07,10,12,14,4.80
2011,07,10,12,15,9.60
2011,07,10,12,16,9.60
2011,07,10,12,17,4.80
2011,07,10,12,18,6.40
2011,07,10,12,19,4.80
2011,07,10,12,20,4.80
2011,07,10,12,21,4.80
2011,07,10,12,22,6.40
2011,07,10,12,23,6.40
2011,07,10,12,24,6.40
2011,07,10,12,25,3.20
2011,07,10,12,26,3.20
2011,07,10,12,27,6.40
2011,07,10,12,28,3.20
2011,07,10,12,29,6.40
2011,07,10,12,30,9.60
2011,07,10,12,31,8.10
2011,07,10,12,32,6.40
2011,07,10,12,33,6.40
2011,07,10,12,34,6.40
2011,07,10,12,35,9.60
2011,07,10,12,36,6.40
2011,07,10,12,37,1.60
2011,07,10,12,38,0.00
2011,07,10,12,39,1.60
2011,07,10,12,40,6.40
2011,07,10,12,41,4.80
2011,07,10,12,42,6.40
2011,07,10,12,43,4.80
2011,07,10,12,44,4.80
2011,07,10,12,45,6.40
2011,07,10,12,46,8.10
2011,07,10,12,47,8.10
2011,07,10,12,48,8.10
2011,07,10,12,49,8.10
2011,07,10,12,50,11.30
2011,07,10,12,51,8.10
2011,07,10,12,52,6.40
2011,07,10,12,53,6.40
2011,07,10,12,54,6.40
2011,07,10,12,55,6.40
2011,07,10,12,56,8.10
2011,07,10,12,57,6.40
2011,07,10,12,58,4.80
2011,07,10,12,59,4.80
2011,07,10,13,00,8.10
2011,07,10,13,01,12.90
2011,07,10,13,02,9.60
2011,07,10,13,03,9.60
2011,07,10,13,04,4.80
2011,07,10,13,05,9.60
2011,07,10,13,06,9.60
2011,07,10,13,07,8.10
2011,07,10,13,08,9.60
2011,07,10,13,09,9.60
2011,07,10,13,10,9.60
2011,07,10,13,11,4.80
2011,07,10,13,12,9.60
2011,07,10,13,13,6.40
2011,07,10,13,14,6.40
2011,07,10,13,15,6.40
2011,07,10,13,16,8.10
2011,07,10,13,17,6.40
2011,07,10,13,18,9.60
2011,07,10,13,19,8.10
2011,07,10,13,20,6.40
2011,07,10,13,21,6.40
2011,07,10,13,22,8.10
2011,07,10,13,23,6.40
2011,07,10,13,24,6.40
2011,07,10,13,25,6.40
2011,07,10,13,26,6.40
2011,07,10,13,27,9.60
2011,07,10,13,28,9.60
2011,07,10,13,29,8.10
2011,07,10,13,30,9.60
2011,07,10,13,31,11.30
2011,07,10,13,32,8.10
2011,07,10,13,33,8.10
2011,07,10,13,34,9.60
2011,07,10,13,35,8.10
2011,07,10,13,36,8.10
2011,07,10,13,37,9.60
2011,07,10,13,38,11.30
2011,07,10,13,39,8.10
2011,07,10,13,40,6.40
2011,07,10,13,41,9.60
2011,07,10,13,42,6.40
2011,07,10,13,43,11.30
2011,07,10,13,44,8.10
2011,07,10,13,45,6.40
2011,07,10,13,46,9.60
2011,07,10,13,47,11.30
2011,07,10,13,48,8.10
2011,07,10,13,49,9.60
2011,07,10,13,50,9.60
2011,07,10,13,51,9.60
2011,07,10,13,52,11.30
2011,07,10,13,53,8.10
2011,07,10,13,54,11.30
2011,07,10,13,55,9.60
2011,07,10,13,56,6.40
2011,07,10,13,57,8.10
2011,07,10,13,58,4.80
2011,07,10,13,59,8.10
2011,07,10,14,00,6.40
2011,07,10,14,01,8.10
2011,07,10,14,02,6.40
2011,07,10,14,03,6.40
2011,07,10,14,04,4.80
2011,07,10,14,05,6.40
2011,07,10,14,06,6.40
2011,07,10,14,07,6.40
2011,07,10,14,08,3.20
2011,07,10,14,09,3.20
2011,07,10,14,10,4.80
2011,07,10,14,11,6.40
2011,07,10,14,12,11.30
2011,07,10,14,13,9.60
2011,07,10,14,14,9.60
2011,07,10,14,15,6.40
2011,07,10,14,16,6.40
2011,07,10,14,17,6.40
2011,07,10,14,18,6.40
2011,07,10,14,19,9.60
2011,07,10,14,20,8.10
2011,07,10,14,21,8.10
2011,07,10,14,22,9.60
2011,07,10,14,23,6.40
2011,07,10,14,24,4.80
2011,07,10,14,25,4.80
2011,07,10,14,26,4.80
2011,07,10,14,27,6.40
2011,07,10,14,28,8.10
2011,07,10,14,29,8.10
2011,07,10,14,30,6.40
2011,07,10,14,31,4.80
2011,07,10,14,32,4.80
2011,07,10,14,33,8.10
2011,07,10,14,34,1.60
2011,07,10,14,35,3.20
2011,07,10,14,36,4.80
2011,07,10,14,37,4.80
2011,07,10,14,38,8.10
2011,07,10,14,39,8.10
2011,07,10,14,40,8.10
2011,07,10,14,41,6.40
2011,07,10,14,42,6.40
2011,07,10,14,43,3.20
2011,07,10,14,44,6.40
2011,07,10,14,45,4.80
2011,07,10,14,46,3.20
2011,07,10,14,47,8.10
2011,07,10,14,48,4.80
2011,07,10,14,49,4.80
2011,07,10,14,50,8.10
2011,07,10,14,51,8.10
2011,07,10,14,52,8.10
2011,07,10,14,53,8.10
2011,07,10,14,54,8.10
2011,07,10,14,55,9.60
2011,07,10,14,56,8.10
2011,07,10,14,57,4.80
2011,07,10,14,58,4.80
2011,07,10,14,59,4.80
2011,07,10,15,00,8.10
2011,07,10,15,01,8.10
2011,07,10,15,02,8.10
2011,07,10,15,03,6.40
2011,07,10,15,04,4.80
2011,07,10,15,05,4.80
2011,07,10,15,06,4.80
2011,07,10,15,07,8.10
2011,07,10,15,08,8.10
2011,07,10,15,09,6.40
2011,07,10,15,10,6.40
2011,07,10,15,11,6.40
2011,07,10,15,12,3.20
2011,07,10,15,13,4.80
2011,07,10,15,14,6.40
2011,07,10,15,15,6.40
2011,07,10,15,16,4.80
2011,07,10,15,17,8.10
2011,07,10,15,18,3.20
2011,07,10,15,19,4.80
2011,07,10,15,20,4.80
2011,07,10,15,21,8.10
2011,07,10,15,22,6.40
2011,07,10,15,23,6.40
2011,07,10,15,24,4.80
2011,07,10,15,25,4.80
2011,07,10,15,26,9.60
2011,07,10,15,27,6.40
2011,07,10,15,28,6.40
2011,07,10,15,29,4.80
2011,07,10,15,30,6.40
2011,07,10,15,31,9.60
2011,07,10,15,32,8.10
2011,07,10,15,33,8.10
2011,07,10,15,34,9.60
2011,07,10,15,35,8.10
2011,07,10,15,36,6.40
2011,07,10,15,37,8.10
2011,07,10,15,38,8.10
2011,07,10,15,39,4.80
2011,07,10,15,40,6.40
2011,07,10,15,41,6.40
2011,07,10,15,42,6.40
2011,07,10,15,43,4.80
2011,07,10,15,44,4.80
2011,07,10,15,45,4.80
2011,07,10,15,46,6.40
2011,07,10,15,47,6.40
2011,07,10,15,48,6.40
2011,07,10,15,49,4.80
2011,07,10,15,50,3.20
2011,07,10,15,51,6.40
2011,07,10,15,52,4.80
2011,07,10,15,53,3.20
2011,07,10,15,54,3.20
2011,07,10,15,55,6.40
2011,07,10,15,56,6.40
2011,07,10,15,57,3.20
2011,07,10,15,58,6.40
2011,07,10,15,59,6.40
2011,07,10,16,00,4.80
2011,07,10,16,01,4.80
2011,07,10,16,02,3.20
2011,07,10,16,03,3.20
2011,07,10,16,04,6.40
2011,07,10,16,05,6.40
2011,07,10,16,06,4.80
2011,07,10,16,07,3.20
2011,07,10,16,08,1.60
2011,07,10,16,09,3.20
2011,07,10,16,10,4.80
2011,07,10,16,11,4.80
2011,07,10,16,12,3.20
2011,07,10,16,13,3.20
2011,07,10,16,14,4.80
2011,07,10,16,15,4.80
2011,07,10,16,16,4.80
2011,07,10,16,17,11.30
2011,07,10,16,18,9.60
2011,07,10,16,19,8.10
2011,07,10,16,20,8.10
2011,07,10,16,21,4.80
2011,07,10,16,22,3.20
2011,07,10,16,23,4.80
2011,07,10,16,24,3.20
2011,07,10,16,25,3.20
2011,07,10,16,26,6.40
2011,07,10,16,27,4.80
2011,07,10,16,28,4.80
2011,07,10,16,29,3.20
2011,07,10,16,30,3.20
2011,07,10,16,31,6.40
2011,07,10,16,32,8.10
2011,07,10,16,33,8.10
2011,07,10,16,34,8.10
2011,07,10,16,35,8.10
2011,07,10,16,36,8.10
2011,07,10,16,37,4.80
2011,07,10,16,38,6.40
2011,07,10,16,39,6.40
2011,07,10,16,40,8.10
2011,07,10,16,41,6.40
2011,07,10,16,42,6.40
2011,07,10,16,43,6.40
2011,07,10,16,44,6.40
2011,07,10,16,45,4.80
2011,07,10,16,46,3.20
2011,07,10,16,47,4.80
2011,07,10,16,48,6.40
2011,07,10,16,49,6.40
2011,07,10,16,50,9.60
2011,07,10,16,51,8.10
2011,07,10,16,52,9.60
2011,07,10,16,53,4.80
2011,07,10,16,54,9.60
2011,07,10,16,55,6.40
2011,07,10,16,56,6.40
2011,07,10,16,57,4.80
2011,07,10,16,58,6.40
2011,07,10,16,59,6.40
2011,07,10,17,00,3.20
2011,07,10,17,01,4.80
2011,07,10,17,02,4.80
2011,07,10,17,03,3.20
2011,07,10,17,04,3.20
2011,07,10,17,05,6.40
2011,07,10,17,06,3.20
2011,07,10,17,07,3.20
2011,07,10,17,08,4.80
2011,07,10,17,09,3.20
2011,07,10,17,10,1.60
2011,07,10,17,11,1.60
2011,07,10,17,12,1.60
2011,07,10,17,13,3.20
2011,07,10,17,14,1.60
2011,07,10,17,15,3.20
2011,07,10,17,16,8.10
2011,07,10,17,17,6.40
2011,07,10,17,18,4.80
2011,07,10,17,19,4.80
2011,07,10,17,20,3.20
2011,07,10,17,21,3.20
2011,07,10,17,22,1.60
2011,07,10,17,23,1.60
2011,07,10,17,24,1.60
2011,07,10,17,25,4.80
2011,07,10,17,26,4.80
2011,07,10,17,27,4.80
2011,07,10,17,28,1.60
2011,07,10,17,29,3.20
2011,07,10,17,30,4.80
2011,07,10,17,31,6.40
2011,07,10,17,32,3.20
2011,07,10,17,33,4.80
2011,07,10,17,34,1.60
2011,07,10,17,35,3.20
2011,07,10,17,36,1.60
2011,07,10,17,37,3.20
2011,07,10,17,38,4.80
2011,07,10,17,39,4.80
2011,07,10,17,40,4.80
2011,07,10,17,41,4.80
2011,07,10,17,42,8.10
2011,07,10,17,43,4.80
2011,07,10,17,44,6.40
2011,07,10,17,45,4.80
2011,07,10,17,46,4.80
2011,07,10,17,47,8.10
2011,07,10,17,48,8.10
2011,07,10,17,49,8.10
2011,07,10,17,50,4.80
2011,07,10,17,51,6.40
2011,07,10,17,52,4.80
2011,07,10,17,53,4.80
2011,07,10,17,54,4.80
2011,07,10,17,55,6.40
2011,07,10,17,56,4.80
2011,07,10,17,57,3.20
2011,07,10,17,58,4.80
2011,07,10,17,59,1.60
2011,07,10,18,00,6.40
2011,07,10,18,01,6.40
2011,07,10,18,02,4.80
2011,07,10,18,03,3.20
2011,07,10,18,04,4.80
2011,07,10,18,05,4.80
2011,07,10,18,06,4.80